Location: *
(49.9853°N, 3.5569°E)
Time: 15:00:15
(UTC+00:00)

EO 1 Delta rocket - Pass Details

Date: 22 September 2019
Orbit: 697 x 1792 km, 95.4° (Epoch: 20 October)

Event Time Altitude Azimuth Distance (km) Brightness Sun altitude
Rises 18:57:40 0° 166° (SSE) 3,978 7.4 -12.4°
Reaches altitude 10° 19:00:29 10° 166° (SSE) 2,863 6.7 -12.9°
Maximum altitude 19:06:47 85° 80° (E) 890 4.2 -13.8°
Drops below altitude 10° 19:11:53 10° 351° (N) 2,332 6.9 -14.6°
Sets 19:14:00 0° 351° (N) 3,193 7.6 -14.9°
